(74) Galatea
ephemeris date magn radius delta ra dec elong phase
Today9 May 202513.32.208 AU3.216 AU03h06m+15°56'1.5°0.7°
Opposition15 Jan 202612.72.777 AU1.797 AU07h45m+14°53'173.7°2.2°
(74) Galatea - 2025-05-09
astro.vanbuitenen.nl


 
-1 year
-1 month
-1 day
Now
+1 day
+1 month
+1 year

The interactive orbit chart above shows the body's path through the solar system and its position at the given date. Green and blue lines are shown perpendicular to the ecliptic plane: Green if the path is above the ecliptic plane, blue if it is below. (Left-click and drag to rotate the view; Right-click and drag to move the view; Use scroll wheel to zoom in our out.)

The orbital elements of Galatea are:

            e (Eccentricity)                : 0.2362803
            a (Semimajor axis)              : 2.7803335
            i (Inclination)                 : 4.07194
            Ω (Longitude of ascending node) : 197.11338
            ω (Argument of perihelion)      : 174.88453
            M (Mean anomaly)                : 21.84003
            Epoch                           : 2025 May 05

            L (Longitude of perihelion)     : 192.01075
            B (Latitude of perihelion)      : 0.36276
            P (Orbital period in years)     : 4.64            
        

The light curve chart below shows the estimated development of the minor planet's magnitude.


The all-sky chart below shows the path of the minor planet over the same period as the light curve. The current position is marked yellow.





The following chart shows the path of the minor planet in the next few days. The field of view is optimized for (~10x50) binoculars and finderscopes. A more printer-friendly version of the same chart can be found below.




Ephemerides:
Date       Time       RA (2000)    DEC (2000)    delta   radius  elong  phase   PA    magn
2025-05-09 00:00 UT   03 06 15.0   +15 56 54     3.216    2.208    1.5    0.7   152   13.3 
2025-05-09 06:40 UT   03 06 50.5   +15 59 05     3.217    2.208    1.5    0.7   157   13.3 
2025-05-10 00:00 UT   03 08 22.7   +16 04 43     3.218    2.209    1.5    0.7   169   13.3 
2025-05-11 00:00 UT   03 10 30.5   +16 12 27     3.220    2.211    1.6    0.7   185   13.3 
2025-05-12 00:00 UT   03 12 38.2   +16 20 05     3.221    2.212    1.8    0.8   198   13.3 
2025-05-13 00:00 UT   03 14 46.0   +16 27 37     3.223    2.214    2.1    1.0   208   13.3 
2025-05-14 00:00 UT   03 16 53.9   +16 35 04     3.224    2.215    2.4    1.1   216   13.4 
2025-05-15 00:00 UT   03 19 01.7   +16 42 25     3.226    2.217    2.8    1.3   221   13.4 
2025-05-16 00:00 UT   03 21 09.6   +16 49 39     3.227    2.218    3.2    1.4   226   13.4 
2025-05-17 00:00 UT   03 23 17.5   +16 56 48     3.228    2.220    3.6    1.6   229   13.4 
2025-05-18 00:00 UT   03 25 25.5   +17 03 51     3.229    2.222    4.0    1.8   232   13.4 
2025-05-19 00:00 UT   03 27 33.4   +17 10 48     3.230    2.223    4.4    2.0   234   13.4 
2025-05-20 00:00 UT   03 29 41.4   +17 17 39     3.231    2.225    4.8    2.2   236   13.5 
2025-05-21 00:00 UT   03 31 49.3   +17 24 24     3.232    2.226    5.2    2.4   238   13.5 
2025-05-22 00:00 UT   03 33 57.3   +17 31 03     3.233    2.228    5.6    2.6   239   13.5 
2025-05-23 00:00 UT   03 36 05.3   +17 37 36     3.234    2.230    6.1    2.8   241   13.5 
2025-05-24 00:00 UT   03 38 13.2   +17 44 02     3.234    2.231    6.5    2.9   242   13.5 
2025-05-25 00:00 UT   03 40 21.2   +17 50 23     3.235    2.233    6.9    3.1   243   13.5 


    Terminology:
            
    delta:  distance between minor planet and earth in AU
    radius: distance between minor planet and sun in AU
    magn:   magnitude (brightness) estimate    
    ra:     right ascension in hours (24h = 360deg)
    dec:    declination in degrees
    elong:  elongation in degrees (angle sun-earth-minor planet)    
    phase:  phase angle in degrees (angle sun-minor planet-earth)        
    AU:     Astronomical Unit (mean distance between earth and sun: 149597870.7 km
    

Orbital elements provided by the MPC (Minor Planet Center).
Calculations by a modified version of AAPlus, a C# implementation of the AA+ project by PJ Naughter from the algorithms presented in the book "Astronomical Algorithms" by Jean Meeus.
NGC2000 dso catalog and star labels from VizieR as provided by the Strasbourg astronomical Data Center.
Tycho2 catalog from the ESO archive.